Showing default

ANGOSAT 1, 43087

Orbit data source: Space-Track

ANGOSAT 1, 43087 is a payload satellite owned by GGPEN (AO) in GEO that was launched on Tue, 26 Dec 2017 UTC via a ZENIT-3SLBF launch vehicle from the Tyuratam Missile And Space Complex (TTMTR). Payload-class satellites include a variety of spacecraft equipped with specific instruments for various scientific and technological missions. These include communications satellites like Starlink; space stations such as the ISS; scientific satellites like the Hubble; Earth observation satellites from companies like Planet Labs, Umbra, and HawkEye 360; GPS; miniature CubeSats for education and research; and military/defense satellites.

Not visible in the next 10 days
Identifier
43087, 2017-086A
Orbit
GEO
Country
Flag of AOAO / AGO
Related business
Manufacturer
RKKE
Mission
Non-operational Civil Communications
Bus & Motor
YAMAL 100, Unknown motor
Mass
1,647 kg wet, ~1,400 kg dry
Launch date (UTC)
2017-12-26 (8 years ago)
Launch vehicle
ZENIT-3SLBF
Launch site
Tyuratam Missile And Space Complex (TTMTR)
Object type
Payload
Rocket body
Debris
Shape & HBR
Box + 2 Pan, 6.0 m
Radar Cross Section
11.377 m², Large (>1 m²)

Expand to show TLE details & history
Last TLE update: 2 days ago

TLE from 2 days ago
0 ANGOSAT 1
1 43087U 17086A   26171.35860178 -.00000044  00000-0  00000+0 0  9997
2 43087   7.5865  67.2468 0017969 174.2653 347.1628  0.99382670 30769
Epoch: 2026-06-20T08:36Z
TLE epoch observation values (Epoch: 2026-06-20T08:36:23.193Z)
Latitude
2.40698°
Longitude
-168.87058°
Altitude
35,962.526 km
Speed
3.071 km/s
True Right ascension
15h 15m 12s
True Declination
2° 24' 16"
Sunlit
Object was in daylight at epoch
Visualization orbit readout
Latitude
Unknown
Longitude
Unknown
Altitude
Unknown
Speed
Unknown
Apparent Right ascension
Unknown
Apparent Declination
Unknown
Sunlit
N/A
Visualization observer readout
Local Sidereal Time
21:38:34
Azimuth
Unknown
Elevation
Unknown
Doppler factor
Unknown
Orbital elements
Apogee altitude
36,114.959 km
Perigee altitude
35,962.521 km
Semi-major axis
42,416.877 km
Eccentricity
0.0018
Inclination
7.5865°
RAAN
67.2468°
Arg. of periapsis
174.2653°
True anomaly
347.11695°
Mean anomaly
347.1628°
Eccentric anomaly
347.13989°
Mean motion
0.24845 °/min
Orbital period
1,449 mins
BSTAR
0
Loading maneuver chart data...
Computing Atmospheric mass density...
Loading historical data...
Loading historical data...
Loading historical data...
Loading historical data...
Loading historical data...
Loading historical data...
Loading historical data...

Documentation

Showing up to 5 results
|